Year,Month,Day,Hour,Minute,Value (Times are PST for temperature in C)
2019,03,07,00,00,0.40
2019,03,07,00,01,0.40
2019,03,07,00,02,0.40
2019,03,07,00,03,0.40
2019,03,07,00,04,0.40
2019,03,07,00,05,0.40
2019,03,07,00,06,0.40
2019,03,07,00,07,0.40
2019,03,07,00,08,0.40
2019,03,07,00,09,0.40
2019,03,07,00,10,0.40
2019,03,07,00,11,0.40
2019,03,07,00,12,0.40
2019,03,07,00,13,0.40
2019,03,07,00,14,0.40
2019,03,07,00,15,0.40
2019,03,07,00,16,0.40
2019,03,07,00,17,0.40
2019,03,07,00,18,0.40
2019,03,07,00,19,0.50
2019,03,07,00,20,0.50
2019,03,07,00,21,0.50
2019,03,07,00,22,0.60
2019,03,07,00,23,0.60
2019,03,07,00,24,0.60
2019,03,07,00,25,0.70
2019,03,07,00,26,0.70
2019,03,07,00,27,0.70
2019,03,07,00,28,0.80
2019,03,07,00,29,0.80
2019,03,07,00,30,0.80
2019,03,07,00,31,0.90
2019,03,07,00,32,1.00
2019,03,07,00,33,1.00
2019,03,07,00,34,1.10
2019,03,07,00,35,1.20
2019,03,07,00,36,1.20
2019,03,07,00,37,1.30
2019,03,07,00,38,1.30
2019,03,07,00,39,1.30
2019,03,07,00,40,1.30
2019,03,07,00,41,1.40
2019,03,07,00,42,1.40
2019,03,07,00,43,1.40
2019,03,07,00,44,1.50
2019,03,07,00,45,1.50
2019,03,07,00,46,1.50
2019,03,07,00,47,1.50
2019,03,07,00,48,1.60
2019,03,07,00,49,1.60
2019,03,07,00,50,1.60
2019,03,07,00,51,1.60
2019,03,07,00,52,1.70
2019,03,07,00,53,1.70
2019,03,07,00,54,1.70
2019,03,07,00,55,1.80
2019,03,07,00,56,1.80
2019,03,07,00,57,1.80
2019,03,07,00,58,1.80
2019,03,07,00,59,1.80
2019,03,07,01,00,1.80
2019,03,07,01,01,1.80
2019,03,07,01,02,1.80
2019,03,07,01,03,1.80
2019,03,07,01,04,1.80
2019,03,07,01,05,1.80
2019,03,07,01,06,1.80
2019,03,07,01,07,1.80
2019,03,07,01,08,1.80
2019,03,07,01,09,1.70
2019,03,07,01,10,1.70
2019,03,07,01,11,1.70
2019,03,07,01,12,1.70
2019,03,07,01,13,1.60
2019,03,07,01,14,1.60
2019,03,07,01,15,1.60
2019,03,07,01,16,1.50
2019,03,07,01,17,1.50
2019,03,07,01,18,1.50
2019,03,07,01,19,1.50
2019,03,07,01,20,1.40
2019,03,07,01,21,1.40
2019,03,07,01,22,1.30
2019,03,07,01,23,1.30
2019,03,07,01,24,1.20
2019,03,07,01,25,1.20
2019,03,07,01,26,1.20
2019,03,07,01,27,1.20
2019,03,07,01,28,1.10
2019,03,07,01,29,1.10
2019,03,07,01,30,1.10
2019,03,07,01,31,1.10
2019,03,07,01,32,1.10
2019,03,07,01,33,1.10
2019,03,07,01,34,1.10
2019,03,07,01,35,1.10
2019,03,07,01,36,1.20
2019,03,07,01,37,1.20
2019,03,07,01,38,1.20
2019,03,07,01,39,1.20
2019,03,07,01,40,1.20
2019,03,07,01,41,1.10
2019,03,07,01,42,1.10
2019,03,07,01,43,1.10
2019,03,07,01,44,1.10
2019,03,07,01,45,1.10
2019,03,07,01,46,1.10
2019,03,07,01,47,1.10
2019,03,07,01,48,1.10
2019,03,07,01,49,1.10
2019,03,07,01,50,1.10
2019,03,07,01,51,1.10
2019,03,07,01,52,1.10
2019,03,07,01,53,1.20
2019,03,07,01,54,1.30
2019,03,07,01,55,1.30
2019,03,07,01,56,1.40
2019,03,07,01,57,1.50
2019,03,07,01,58,1.60
2019,03,07,01,59,1.60
2019,03,07,02,00,1.70
2019,03,07,02,01,1.70
2019,03,07,02,02,1.80
2019,03,07,02,03,1.80
2019,03,07,02,04,1.80
2019,03,07,02,05,1.80
2019,03,07,02,06,1.90
2019,03,07,02,07,1.90
2019,03,07,02,08,1.90
2019,03,07,02,09,2.00
2019,03,07,02,10,2.00
2019,03,07,02,11,2.00
2019,03,07,02,12,2.00
2019,03,07,02,13,2.00
2019,03,07,02,14,2.10
2019,03,07,02,15,2.10
2019,03,07,02,16,2.00
2019,03,07,02,17,2.00
2019,03,07,02,18,2.00
2019,03,07,02,19,2.00
2019,03,07,02,20,2.00
2019,03,07,02,21,2.00
2019,03,07,02,22,1.90
2019,03,07,02,23,1.90
2019,03,07,02,24,1.90
2019,03,07,02,25,1.90
2019,03,07,02,26,1.90
2019,03,07,02,27,1.90
2019,03,07,02,28,1.90
2019,03,07,02,29,1.90
2019,03,07,02,30,1.90
2019,03,07,02,31,1.90
2019,03,07,02,32,1.90
2019,03,07,02,33,1.90
2019,03,07,02,34,1.90
2019,03,07,02,35,1.90
2019,03,07,02,36,1.90
2019,03,07,02,37,1.90
2019,03,07,02,38,1.90
2019,03,07,02,39,1.90
2019,03,07,02,40,1.90
2019,03,07,02,41,1.80
2019,03,07,02,42,1.80
2019,03,07,02,43,1.80
2019,03,07,02,44,1.80
2019,03,07,02,45,1.80
2019,03,07,02,46,1.80
2019,03,07,02,47,1.80
2019,03,07,02,48,1.80
2019,03,07,02,49,1.80
2019,03,07,02,50,1.80
2019,03,07,02,51,1.80
2019,03,07,02,52,1.80
2019,03,07,02,53,1.80
2019,03,07,02,54,1.80
2019,03,07,02,55,1.80
2019,03,07,02,56,1.80
2019,03,07,02,57,1.80
2019,03,07,02,58,1.80
2019,03,07,02,59,1.80
2019,03,07,03,00,1.80
2019,03,07,03,01,1.80
2019,03,07,03,02,1.70
2019,03,07,03,03,1.70
2019,03,07,03,04,1.70
2019,03,07,03,05,1.70
2019,03,07,03,06,1.70
2019,03,07,03,07,1.70
2019,03,07,03,08,1.70
2019,03,07,03,09,1.70
2019,03,07,03,10,1.70
2019,03,07,03,11,1.70
2019,03,07,03,12,1.70
2019,03,07,03,13,1.70
2019,03,07,03,14,1.70
2019,03,07,03,15,1.70
2019,03,07,03,16,1.70
2019,03,07,03,17,1.70
2019,03,07,03,18,1.70
2019,03,07,03,19,1.70
2019,03,07,03,20,1.70
2019,03,07,03,21,1.70
2019,03,07,03,22,1.70
2019,03,07,03,23,1.70
2019,03,07,03,24,1.70
2019,03,07,03,25,1.70
2019,03,07,03,26,1.70
2019,03,07,03,27,1.70
2019,03,07,03,28,1.70
2019,03,07,03,29,1.70
2019,03,07,03,30,1.70
2019,03,07,03,31,1.70
2019,03,07,03,32,1.70
2019,03,07,03,33,1.70
2019,03,07,03,34,1.70
2019,03,07,03,35,1.70
2019,03,07,03,36,1.70
2019,03,07,03,37,1.60
2019,03,07,03,38,1.60
2019,03,07,03,39,1.60
2019,03,07,03,40,1.60
2019,03,07,03,41,1.60
2019,03,07,03,42,1.50
2019,03,07,03,43,1.50
2019,03,07,03,44,1.50
2019,03,07,03,45,1.50
2019,03,07,03,46,1.50
2019,03,07,03,47,1.50
2019,03,07,03,48,1.60
2019,03,07,03,49,1.60
2019,03,07,03,50,1.60
2019,03,07,03,51,1.60
2019,03,07,03,52,1.60
2019,03,07,03,53,1.60
2019,03,07,03,54,1.60
2019,03,07,03,55,1.70
2019,03,07,03,56,1.70
2019,03,07,03,57,1.70
2019,03,07,03,58,1.70
2019,03,07,03,59,1.70
2019,03,07,04,00,1.70
2019,03,07,04,01,1.70
2019,03,07,04,02,1.70
2019,03,07,04,03,1.70
2019,03,07,04,04,1.70
2019,03,07,04,05,1.70
2019,03,07,04,06,1.70
2019,03,07,04,07,1.70
2019,03,07,04,08,1.70
2019,03,07,04,09,1.70
2019,03,07,04,10,1.70
2019,03,07,04,11,1.80
2019,03,07,04,12,1.80
2019,03,07,04,13,1.80
2019,03,07,04,14,1.80
2019,03,07,04,15,1.80
2019,03,07,04,16,1.80
2019,03,07,04,17,1.80
2019,03,07,04,18,1.80
2019,03,07,04,19,1.80
2019,03,07,04,20,1.80
2019,03,07,04,21,1.80
2019,03,07,04,22,1.80
2019,03,07,04,23,1.80
2019,03,07,04,24,1.80
2019,03,07,04,25,1.80
2019,03,07,04,26,1.80
2019,03,07,04,27,1.80
2019,03,07,04,28,1.80
2019,03,07,04,29,1.80
2019,03,07,04,30,1.80
2019,03,07,04,31,1.80
2019,03,07,04,32,1.80
2019,03,07,04,33,1.80
2019,03,07,04,34,1.80
2019,03,07,04,35,1.80
2019,03,07,04,36,1.80
2019,03,07,04,37,1.80
2019,03,07,04,38,1.90
2019,03,07,04,39,1.90
2019,03,07,04,40,1.90
2019,03,07,04,41,1.90
2019,03,07,04,42,1.90
2019,03,07,04,43,1.90
2019,03,07,04,44,2.00
2019,03,07,04,45,2.00
2019,03,07,04,46,2.00
2019,03,07,04,47,2.00
2019,03,07,04,48,2.00
2019,03,07,04,49,2.10
2019,03,07,04,50,2.10
2019,03,07,04,51,2.10
2019,03,07,04,52,2.10
2019,03,07,04,53,2.20
2019,03,07,04,54,2.20
2019,03,07,04,55,2.20
2019,03,07,04,56,2.20
2019,03,07,04,57,2.20
2019,03,07,04,58,2.20
2019,03,07,04,59,2.30
2019,03,07,05,00,2.30
2019,03,07,05,01,2.30
2019,03,07,05,02,2.30
2019,03,07,05,03,2.30
2019,03,07,05,04,2.40
2019,03,07,05,05,2.40
2019,03,07,05,06,2.40
2019,03,07,05,07,2.40
2019,03,07,05,08,2.40
2019,03,07,05,09,2.40
2019,03,07,05,10,2.40
2019,03,07,05,11,2.40
2019,03,07,05,12,2.40
2019,03,07,05,13,2.40
2019,03,07,05,14,2.40
2019,03,07,05,15,2.40
2019,03,07,05,16,2.40
2019,03,07,05,17,2.40
2019,03,07,05,18,2.40
2019,03,07,05,19,2.40
2019,03,07,05,20,2.40
2019,03,07,05,21,2.40
2019,03,07,05,22,2.40
2019,03,07,05,23,2.40
2019,03,07,05,24,2.40
2019,03,07,05,25,2.40
2019,03,07,05,26,2.40
2019,03,07,05,27,2.40
2019,03,07,05,28,2.30
2019,03,07,05,29,2.30
2019,03,07,05,30,2.20
2019,03,07,05,31,2.20
2019,03,07,05,32,2.20
2019,03,07,05,33,2.20
2019,03,07,05,34,2.20
2019,03,07,05,35,2.20
2019,03,07,05,36,2.20
2019,03,07,05,37,2.20
2019,03,07,05,38,2.20
2019,03,07,05,39,2.20
2019,03,07,05,40,2.20
2019,03,07,05,41,2.20
2019,03,07,05,42,2.20
2019,03,07,05,43,2.20
2019,03,07,05,44,2.20
2019,03,07,05,45,2.20
2019,03,07,05,46,2.20
2019,03,07,05,47,2.20
2019,03,07,05,48,2.20
2019,03,07,05,49,2.20
2019,03,07,05,50,2.20
2019,03,07,05,51,2.20
2019,03,07,05,52,2.20
2019,03,07,05,53,2.20
2019,03,07,05,54,2.20
2019,03,07,05,55,2.20
2019,03,07,05,56,2.20
2019,03,07,05,57,2.20
2019,03,07,05,58,2.20
2019,03,07,05,59,2.20
2019,03,07,06,00,2.30
2019,03,07,06,01,2.30
2019,03,07,06,02,2.40
2019,03,07,06,03,2.40
2019,03,07,06,04,2.40
2019,03,07,06,05,2.40
2019,03,07,06,06,2.50
2019,03,07,06,07,2.50
2019,03,07,06,08,2.50
2019,03,07,06,09,2.50
2019,03,07,06,10,2.40
2019,03,07,06,11,2.40
2019,03,07,06,12,2.30
2019,03,07,06,13,2.30
2019,03,07,06,14,2.20
2019,03,07,06,15,2.20
2019,03,07,06,16,2.20
2019,03,07,06,17,2.20
2019,03,07,06,18,2.10
2019,03,07,06,19,2.10
2019,03,07,06,20,2.10
2019,03,07,06,21,2.00
2019,03,07,06,22,2.00
2019,03,07,06,23,2.00
2019,03,07,06,24,2.00
2019,03,07,06,25,2.00
2019,03,07,06,26,2.00
2019,03,07,06,27,1.90
2019,03,07,06,28,1.90
2019,03,07,06,29,1.90
2019,03,07,06,30,1.90
2019,03,07,06,31,1.90
2019,03,07,06,32,1.80
2019,03,07,06,33,1.80
2019,03,07,06,34,1.80
2019,03,07,06,35,1.80
2019,03,07,06,36,1.80
2019,03,07,06,37,1.80
2019,03,07,06,38,1.80
2019,03,07,06,39,1.80
2019,03,07,06,40,1.80
2019,03,07,06,41,1.80
2019,03,07,06,42,1.80
2019,03,07,06,43,1.80
2019,03,07,06,44,1.90
2019,03,07,06,45,1.90
2019,03,07,06,46,1.90
2019,03,07,06,47,1.90
2019,03,07,06,48,2.00
2019,03,07,06,49,2.00
2019,03,07,06,50,2.00
2019,03,07,06,51,2.00
2019,03,07,06,52,2.00
2019,03,07,06,53,2.00
2019,03,07,06,54,2.00
2019,03,07,06,55,2.00
2019,03,07,06,56,2.00
2019,03,07,06,57,2.00
2019,03,07,06,58,2.00
2019,03,07,06,59,2.00
2019,03,07,07,00,2.10
2019,03,07,07,01,2.10
2019,03,07,07,02,2.10
2019,03,07,07,03,2.10
2019,03,07,07,04,2.10
2019,03,07,07,05,2.00
2019,03,07,07,06,2.00
2019,03,07,07,07,2.00
2019,03,07,07,08,2.00
2019,03,07,07,09,2.00
2019,03,07,07,10,2.00
2019,03,07,07,11,2.00
2019,03,07,07,12,2.00
2019,03,07,07,13,2.00
2019,03,07,07,14,1.90
2019,03,07,07,15,1.90
2019,03,07,07,16,1.90
2019,03,07,07,17,1.90
2019,03,07,07,18,1.90
2019,03,07,07,19,1.90
2019,03,07,07,20,1.90
2019,03,07,07,21,1.90
2019,03,07,07,22,1.90
2019,03,07,07,23,1.90
2019,03,07,07,24,2.00
2019,03,07,07,25,2.00
2019,03,07,07,26,2.00
2019,03,07,07,27,2.00
2019,03,07,07,28,2.10
2019,03,07,07,29,2.10
2019,03,07,07,30,2.10
2019,03,07,07,31,2.10
2019,03,07,07,32,2.10
2019,03,07,07,33,2.10
2019,03,07,07,34,2.10
2019,03,07,07,35,2.10
2019,03,07,07,36,2.20
2019,03,07,07,37,2.20
2019,03,07,07,38,2.20
2019,03,07,07,39,2.20
2019,03,07,07,40,2.20
2019,03,07,07,41,2.20
2019,03,07,07,42,2.20
2019,03,07,07,43,2.20
2019,03,07,07,44,2.20
2019,03,07,07,45,2.20
2019,03,07,07,46,2.20
2019,03,07,07,47,2.20
2019,03,07,07,48,2.20
2019,03,07,07,49,2.20
2019,03,07,07,50,2.20
2019,03,07,07,51,2.20
2019,03,07,07,52,2.20
2019,03,07,07,53,2.20
2019,03,07,07,54,2.20
2019,03,07,07,55,2.20
2019,03,07,07,56,2.20
2019,03,07,07,57,2.20
2019,03,07,07,58,2.20
2019,03,07,07,59,2.30
2019,03,07,08,00,2.30
2019,03,07,08,01,2.30
2019,03,07,08,02,2.30
2019,03,07,08,03,2.30
2019,03,07,08,04,2.40
2019,03,07,08,05,2.40
2019,03,07,08,06,2.40
2019,03,07,08,07,2.40
2019,03,07,08,08,2.40
2019,03,07,08,09,2.40
2019,03,07,08,10,2.50
2019,03,07,08,11,2.50
2019,03,07,08,12,2.50
2019,03,07,08,13,2.50
2019,03,07,08,14,2.50
2019,03,07,08,15,2.50
2019,03,07,08,16,2.50
2019,03,07,08,17,2.50
2019,03,07,08,18,2.50
2019,03,07,08,19,2.50
2019,03,07,08,20,2.50
2019,03,07,08,21,2.50
2019,03,07,08,22,2.40
2019,03,07,08,23,2.40
2019,03,07,08,24,2.40
2019,03,07,08,25,2.40
2019,03,07,08,26,2.40
2019,03,07,08,27,2.30
2019,03,07,08,28,2.30
2019,03,07,08,29,2.30
2019,03,07,08,30,2.30
2019,03,07,08,31,2.30
2019,03,07,08,32,2.30
2019,03,07,08,33,2.30
2019,03,07,08,34,2.30
2019,03,07,08,35,2.30
2019,03,07,08,36,2.30
2019,03,07,08,37,2.30
2019,03,07,08,38,2.30
2019,03,07,08,39,2.40
2019,03,07,08,40,2.40
2019,03,07,08,41,2.40
2019,03,07,08,42,2.50
2019,03,07,08,43,2.50
2019,03,07,08,44,2.60
2019,03,07,08,45,2.60
2019,03,07,08,46,2.70
2019,03,07,08,47,2.70
2019,03,07,08,48,2.80
2019,03,07,08,49,2.80
2019,03,07,08,50,2.90
2019,03,07,08,51,2.90
2019,03,07,08,52,2.90
2019,03,07,08,53,3.10
2019,03,07,08,54,3.10
2019,03,07,08,55,3.10
2019,03,07,08,56,3.20
2019,03,07,08,57,3.20
2019,03,07,08,58,3.30
2019,03,07,08,59,3.40
2019,03,07,09,00,3.60
2019,03,07,09,01,3.70
2019,03,07,09,02,3.80
2019,03,07,09,03,3.80
2019,03,07,09,04,3.90
2019,03,07,09,05,4.00
2019,03,07,09,06,4.10
2019,03,07,09,07,4.30
2019,03,07,09,08,4.30
2019,03,07,09,09,4.40
2019,03,07,09,10,4.60
2019,03,07,09,11,4.70
2019,03,07,09,12,4.80
2019,03,07,09,13,4.90
2019,03,07,09,14,5.10
2019,03,07,09,15,5.10
2019,03,07,09,16,5.10
2019,03,07,09,17,5.10
2019,03,07,09,18,5.20
2019,03,07,09,19,5.30
2019,03,07,09,20,5.30
2019,03,07,09,21,5.20
2019,03,07,09,22,5.20
2019,03,07,09,23,5.20
2019,03,07,09,24,5.20
2019,03,07,09,25,5.30
2019,03,07,09,26,5.30
2019,03,07,09,27,5.30
2019,03,07,09,28,5.30
2019,03,07,09,29,5.30
2019,03,07,09,30,5.20
2019,03,07,09,31,5.10
2019,03,07,09,32,5.10
2019,03,07,09,33,5.10
2019,03,07,09,34,5.10
2019,03,07,09,35,5.20
2019,03,07,09,36,5.10
2019,03,07,09,37,5.10
2019,03,07,09,38,5.10
2019,03,07,09,39,5.10
2019,03,07,09,40,5.10
2019,03,07,09,41,5.10
2019,03,07,09,42,5.10
2019,03,07,09,43,5.10
2019,03,07,09,44,5.10
2019,03,07,09,45,5.10
2019,03,07,09,46,5.20
2019,03,07,09,47,5.30
2019,03,07,09,48,5.40
2019,03,07,09,49,5.50
2019,03,07,09,50,5.70
2019,03,07,09,51,5.70
2019,03,07,09,52,5.70
2019,03,07,09,53,5.60
2019,03,07,09,54,5.50
2019,03,07,09,55,5.40
2019,03,07,09,56,5.40
2019,03,07,09,57,5.50
2019,03,07,09,58,5.50
2019,03,07,09,59,5.50
2019,03,07,10,00,5.60
2019,03,07,10,01,5.70
2019,03,07,10,02,5.80
2019,03,07,10,03,5.80
2019,03,07,10,04,5.90
2019,03,07,10,05,5.90
2019,03,07,10,06,5.90
2019,03,07,10,07,6.00
2019,03,07,10,08,6.00
2019,03,07,10,09,6.00
2019,03,07,10,10,6.10
2019,03,07,10,11,6.00
2019,03,07,10,12,6.00
2019,03,07,10,13,5.90
2019,03,07,10,14,5.80
2019,03,07,10,15,5.70
2019,03,07,10,16,5.70
2019,03,07,10,17,5.70
2019,03,07,10,18,5.80
2019,03,07,10,19,5.90
2019,03,07,10,20,6.00
2019,03,07,10,21,6.10
2019,03,07,10,22,6.20
2019,03,07,10,23,6.30
2019,03,07,10,24,6.40
2019,03,07,10,25,6.30
2019,03,07,10,26,6.30
2019,03,07,10,27,6.40
2019,03,07,10,28,6.50
2019,03,07,10,29,6.60
2019,03,07,10,30,6.60
2019,03,07,10,31,6.60
2019,03,07,10,32,6.60
2019,03,07,10,33,6.60
2019,03,07,10,34,6.60
2019,03,07,10,35,6.60
2019,03,07,10,36,6.40
2019,03,07,10,37,6.30
2019,03,07,10,38,6.20
2019,03,07,10,39,6.10
2019,03,07,10,40,6.00
2019,03,07,10,41,6.00
2019,03,07,10,42,6.00
2019,03,07,10,43,6.10
2019,03,07,10,44,6.10
2019,03,07,10,45,6.20
2019,03,07,10,46,6.20
2019,03,07,10,47,6.30
2019,03,07,10,48,6.40
2019,03,07,10,49,6.40
2019,03,07,10,50,6.50
2019,03,07,10,51,6.60
2019,03,07,10,52,6.60
2019,03,07,10,53,6.70
2019,03,07,10,54,6.70
2019,03,07,10,55,6.80
2019,03,07,10,56,6.80
2019,03,07,10,57,6.80
2019,03,07,10,58,6.70
2019,03,07,10,59,6.70
2019,03,07,11,00,6.80
2019,03,07,11,01,6.80
2019,03,07,11,02,6.90
2019,03,07,11,03,7.00
2019,03,07,11,04,7.10
2019,03,07,11,05,7.10
2019,03,07,11,06,7.20
2019,03,07,11,07,7.30
2019,03,07,11,08,7.20
2019,03,07,11,09,7.20
2019,03,07,11,10,7.10
2019,03,07,11,11,7.00
2019,03,07,11,12,7.00
2019,03,07,11,13,7.10
2019,03,07,11,14,7.10
2019,03,07,11,15,7.20
2019,03,07,11,16,7.30
2019,03,07,11,17,7.30
2019,03,07,11,18,7.30
2019,03,07,11,19,7.30
2019,03,07,11,20,7.40
2019,03,07,11,21,7.40
2019,03,07,11,22,7.40
2019,03,07,11,23,7.40
2019,03,07,11,24,7.50
2019,03,07,11,25,7.50
2019,03,07,11,26,7.60
2019,03,07,11,27,7.70
2019,03,07,11,28,7.70
2019,03,07,11,29,7.80
2019,03,07,11,30,7.80
2019,03,07,11,31,7.80
2019,03,07,11,32,7.80
2019,03,07,11,33,7.70
2019,03,07,11,34,7.60
2019,03,07,11,35,7.50
2019,03,07,11,36,7.50
2019,03,07,11,37,7.50
2019,03,07,11,38,7.50
2019,03,07,11,39,7.60
2019,03,07,11,40,7.60
2019,03,07,11,41,7.70
2019,03,07,11,42,7.60
2019,03,07,11,43,7.70
2019,03,07,11,44,7.80
2019,03,07,11,45,7.90
2019,03,07,11,46,8.00
2019,03,07,11,47,8.10
2019,03,07,11,48,8.10
2019,03,07,11,49,8.20
2019,03,07,11,50,8.30
2019,03,07,11,51,8.40
2019,03,07,11,52,8.40
2019,03,07,11,53,8.30
2019,03,07,11,54,8.30
2019,03,07,11,55,8.30
2019,03,07,11,56,8.30
2019,03,07,11,57,8.30
2019,03,07,11,58,8.20
2019,03,07,11,59,8.20
2019,03,07,12,00,8.20
2019,03,07,12,01,8.20
2019,03,07,12,02,8.30
2019,03,07,12,03,8.30
2019,03,07,12,04,8.40
2019,03,07,12,05,8.40
2019,03,07,12,06,8.30
2019,03,07,12,07,8.20
2019,03,07,12,08,8.30
2019,03,07,12,09,8.30
2019,03,07,12,10,8.40
2019,03,07,12,11,8.40
2019,03,07,12,12,8.40
2019,03,07,12,13,8.30
2019,03,07,12,14,8.30
2019,03,07,12,15,8.20
2019,03,07,12,16,8.20
2019,03,07,12,17,8.20
2019,03,07,12,18,8.30
2019,03,07,12,19,8.30
2019,03,07,12,20,8.30
2019,03,07,12,21,8.30
2019,03,07,12,22,8.40
2019,03,07,12,23,8.40
2019,03,07,12,24,8.50
2019,03,07,12,25,8.50
2019,03,07,12,26,8.50
2019,03,07,12,27,8.60
2019,03,07,12,28,8.60
2019,03,07,12,29,8.50
2019,03,07,12,30,8.20
2019,03,07,12,31,8.20
2019,03,07,12,32,8.20
2019,03,07,12,33,8.30
2019,03,07,12,34,8.30
2019,03,07,12,35,8.40
2019,03,07,12,36,8.50
2019,03,07,12,37,8.60
2019,03,07,12,38,8.70
2019,03,07,12,39,8.90
2019,03,07,12,40,8.90
2019,03,07,12,41,8.90
2019,03,07,12,42,8.70
2019,03,07,12,43,8.70
2019,03,07,12,44,8.60
2019,03,07,12,45,8.60
2019,03,07,12,46,8.50
2019,03,07,12,47,8.40
2019,03,07,12,48,8.30
2019,03,07,12,49,8.50
2019,03,07,12,50,8.60
2019,03,07,12,51,8.80
2019,03,07,12,52,8.80
2019,03,07,12,53,8.90
2019,03,07,12,54,8.90
2019,03,07,12,55,8.70
2019,03,07,12,56,8.50
2019,03,07,12,57,8.40
2019,03,07,12,58,8.50
2019,03,07,12,59,8.50
2019,03,07,13,00,8.60
2019,03,07,13,01,8.60
2019,03,07,13,02,8.70
2019,03,07,13,03,8.70
2019,03,07,13,04,8.70
2019,03,07,13,05,8.70
2019,03,07,13,06,8.80
2019,03,07,13,07,9.00
2019,03,07,13,08,9.10
2019,03,07,13,09,9.20
2019,03,07,13,10,9.20
2019,03,07,13,11,9.20
2019,03,07,13,12,9.20
2019,03,07,13,13,9.20
2019,03,07,13,14,9.30
2019,03,07,13,15,9.20
2019,03,07,13,16,9.30
2019,03,07,13,17,9.20
2019,03,07,13,18,9.00
2019,03,07,13,19,9.00
2019,03,07,13,20,8.90
2019,03,07,13,21,8.70
2019,03,07,13,22,8.70
2019,03,07,13,23,8.60
2019,03,07,13,24,8.50
2019,03,07,13,25,8.40
2019,03,07,13,26,8.40
2019,03,07,13,27,8.30
2019,03,07,13,28,8.20
2019,03,07,13,29,8.20
2019,03,07,13,30,8.30
2019,03,07,13,31,8.30
2019,03,07,13,32,8.30
2019,03,07,13,33,8.30
2019,03,07,13,34,8.40
2019,03,07,13,35,8.40
2019,03,07,13,36,8.30
2019,03,07,13,37,8.30
2019,03,07,13,38,8.20
2019,03,07,13,39,8.20
2019,03,07,13,40,8.20
2019,03,07,13,41,8.20
2019,03,07,13,42,8.20
2019,03,07,13,43,8.20
2019,03,07,13,44,8.30
2019,03,07,13,45,8.40
2019,03,07,13,46,8.50
2019,03,07,13,47,8.60
2019,03,07,13,48,8.70
2019,03,07,13,49,8.90
2019,03,07,13,50,9.00
2019,03,07,13,51,9.10
2019,03,07,13,52,9.10
2019,03,07,13,53,9.00
2019,03,07,13,54,8.90
2019,03,07,13,55,8.80
2019,03,07,13,56,8.70
2019,03,07,13,57,8.70
2019,03,07,13,58,8.70
2019,03,07,13,59,8.70
2019,03,07,14,00,8.60
2019,03,07,14,01,8.60
2019,03,07,14,02,8.40
2019,03,07,14,03,8.00
2019,03,07,14,04,7.50
2019,03,07,14,05,7.10
2019,03,07,14,06,6.80
2019,03,07,14,07,6.70
2019,03,07,14,08,6.60
2019,03,07,14,09,6.60
2019,03,07,14,10,6.60
2019,03,07,14,11,6.60
2019,03,07,14,12,6.60
2019,03,07,14,13,6.50
2019,03,07,14,14,6.40
2019,03,07,14,15,6.30
2019,03,07,14,16,6.20
2019,03,07,14,17,6.30
2019,03,07,14,18,6.40
2019,03,07,14,19,6.30
2019,03,07,14,20,6.20
2019,03,07,14,21,6.20
2019,03,07,14,22,6.00
2019,03,07,14,23,6.00
2019,03,07,14,24,5.90
2019,03,07,14,25,5.90
2019,03,07,14,26,5.90
2019,03,07,14,27,5.90
2019,03,07,14,28,6.00
2019,03,07,14,29,5.90
2019,03,07,14,30,5.90
2019,03,07,14,31,6.00
2019,03,07,14,32,6.00
2019,03,07,14,33,6.10
2019,03,07,14,34,6.10
2019,03,07,14,35,6.10
2019,03,07,14,36,6.00
2019,03,07,14,37,6.00
2019,03,07,14,38,6.10
2019,03,07,14,39,6.10
2019,03,07,14,40,6.10
2019,03,07,14,41,6.10
2019,03,07,14,42,6.20
2019,03,07,14,43,6.20
2019,03,07,14,44,6.20
2019,03,07,14,45,6.30
2019,03,07,14,46,6.30
2019,03,07,14,47,6.40
2019,03,07,14,48,6.40
2019,03,07,14,49,6.40
2019,03,07,14,50,6.40
2019,03,07,14,51,6.40
2019,03,07,14,52,6.50
2019,03,07,14,53,6.70
2019,03,07,14,54,6.80
2019,03,07,14,55,6.80
2019,03,07,14,56,6.80
2019,03,07,14,57,6.80
2019,03,07,14,58,6.80
2019,03,07,14,59,6.80
2019,03,07,15,00,6.80
2019,03,07,15,01,6.80
2019,03,07,15,02,6.90
2019,03,07,15,03,6.90
2019,03,07,15,04,6.80
2019,03,07,15,05,6.80
2019,03,07,15,06,6.80
2019,03,07,15,07,6.80
2019,03,07,15,08,6.80
2019,03,07,15,09,6.80
2019,03,07,15,10,6.80
2019,03,07,15,11,6.90
2019,03,07,15,12,7.00
2019,03,07,15,13,7.20
2019,03,07,15,14,7.30
2019,03,07,15,15,7.40
2019,03,07,15,16,7.50
2019,03,07,15,17,7.60
2019,03,07,15,18,7.70
2019,03,07,15,19,7.70
2019,03,07,15,20,7.60
2019,03,07,15,21,7.60
2019,03,07,15,22,7.60
2019,03,07,15,23,7.60
2019,03,07,15,24,7.60
2019,03,07,15,25,7.60
2019,03,07,15,26,7.70
2019,03,07,15,27,7.70
2019,03,07,15,28,7.80
2019,03,07,15,29,7.80
2019,03,07,15,30,7.80
2019,03,07,15,31,7.80
2019,03,07,15,32,7.80
2019,03,07,15,33,7.80
2019,03,07,15,34,7.80
2019,03,07,15,35,7.80
2019,03,07,15,36,7.80
2019,03,07,15,37,7.80
2019,03,07,15,38,7.80
2019,03,07,15,39,7.80
2019,03,07,15,40,7.80
2019,03,07,15,41,7.80
2019,03,07,15,42,7.80
2019,03,07,15,43,7.80
2019,03,07,15,44,7.80
2019,03,07,15,45,7.80
2019,03,07,15,46,7.80
2019,03,07,15,47,7.80
2019,03,07,15,48,7.80
2019,03,07,15,49,7.70
2019,03,07,15,50,7.60
2019,03,07,15,51,7.60
2019,03,07,15,52,7.50
2019,03,07,15,53,7.50
2019,03,07,15,54,7.50
2019,03,07,15,55,7.50
2019,03,07,15,56,7.50
2019,03,07,15,57,7.50
2019,03,07,15,58,7.60
2019,03,07,15,59,7.60
2019,03,07,16,00,7.50
2019,03,07,16,01,7.50
2019,03,07,16,02,7.50
2019,03,07,16,03,7.40
2019,03,07,16,04,7.40
2019,03,07,16,05,7.40
2019,03,07,16,06,7.40
2019,03,07,16,07,7.40
2019,03,07,16,08,7.30
2019,03,07,16,09,7.30
2019,03,07,16,10,7.30
2019,03,07,16,11,7.30
2019,03,07,16,12,7.30
2019,03,07,16,13,7.20
2019,03,07,16,14,7.20
2019,03,07,16,15,7.20
2019,03,07,16,16,7.20
2019,03,07,16,17,7.10
2019,03,07,16,18,7.10
2019,03,07,16,19,7.00
2019,03,07,16,20,7.00
2019,03,07,16,21,7.00
2019,03,07,16,22,6.90
2019,03,07,16,23,6.90
2019,03,07,16,24,6.80
2019,03,07,16,25,6.80
2019,03,07,16,26,6.80
2019,03,07,16,27,6.80
2019,03,07,16,28,6.70
2019,03,07,16,29,6.70
2019,03,07,16,30,6.70
2019,03,07,16,31,6.70
2019,03,07,16,32,6.70
2019,03,07,16,33,6.70
2019,03,07,16,34,6.70
2019,03,07,16,35,6.70
2019,03,07,16,36,6.60
2019,03,07,16,37,6.60
2019,03,07,16,38,6.60
2019,03,07,16,39,6.60
2019,03,07,16,40,6.60
2019,03,07,16,41,6.60
2019,03,07,16,42,6.60
2019,03,07,16,43,6.60
2019,03,07,16,44,6.60
2019,03,07,16,45,6.60
2019,03,07,16,46,6.50
2019,03,07,16,47,6.40
2019,03,07,16,48,6.40
2019,03,07,16,49,6.30
2019,03,07,16,50,6.30
2019,03,07,16,51,6.20
2019,03,07,16,52,6.20
2019,03,07,16,53,6.10
2019,03,07,16,54,6.00
2019,03,07,16,55,5.90
2019,03,07,16,56,5.90
2019,03,07,16,57,5.80
2019,03,07,16,58,5.80
2019,03,07,16,59,5.80
2019,03,07,17,00,5.90
2019,03,07,17,01,5.80
2019,03,07,17,02,5.80
2019,03,07,17,03,5.70
2019,03,07,17,04,5.70
2019,03,07,17,05,5.70
2019,03,07,17,06,5.70
2019,03,07,17,07,5.60
2019,03,07,17,08,5.50
2019,03,07,17,09,5.50
2019,03,07,17,10,5.40
2019,03,07,17,11,5.30
2019,03,07,17,12,5.30
2019,03,07,17,13,5.30
2019,03,07,17,14,5.20
2019,03,07,17,15,5.20
2019,03,07,17,16,5.10
2019,03,07,17,17,5.10
2019,03,07,17,18,5.20
2019,03,07,17,19,5.20
2019,03,07,17,20,5.20
2019,03,07,17,21,5.20
2019,03,07,17,22,5.20
2019,03,07,17,23,5.10
2019,03,07,17,24,5.10
2019,03,07,17,25,5.10
2019,03,07,17,26,5.10
2019,03,07,17,27,5.00
2019,03,07,17,28,5.00
2019,03,07,17,29,4.90
2019,03,07,17,30,4.90
2019,03,07,17,31,4.90
2019,03,07,17,32,4.90
2019,03,07,17,33,4.90
2019,03,07,17,34,4.90
2019,03,07,17,35,4.80
2019,03,07,17,36,4.80
2019,03,07,17,37,4.80
2019,03,07,17,38,4.70
2019,03,07,17,39,4.70
2019,03,07,17,40,4.70
2019,03,07,17,41,4.70
2019,03,07,17,42,4.70
2019,03,07,17,43,4.70
2019,03,07,17,44,4.70
2019,03,07,17,45,4.70
2019,03,07,17,46,4.60
2019,03,07,17,47,4.60
2019,03,07,17,48,4.50
2019,03,07,17,49,4.40
2019,03,07,17,50,4.30
2019,03,07,17,51,4.20
2019,03,07,17,52,4.10
2019,03,07,17,53,4.00
2019,03,07,17,54,4.00
2019,03,07,17,55,3.80
2019,03,07,17,56,3.80
2019,03,07,17,57,3.70
2019,03,07,17,58,3.60
2019,03,07,17,59,3.60
2019,03,07,18,00,3.50
2019,03,07,18,01,3.50
2019,03,07,18,02,3.50
2019,03,07,18,03,3.50
2019,03,07,18,04,3.50
2019,03,07,18,05,3.50
2019,03,07,18,06,3.50